DECAYED
Showing default

FLOCK 4V 13, 46297 (Decayed)

Orbit data source: Space-Track

FLOCK 4V 13, 46297 was a payload satellite owned by Planet (US) in LEO that was launched on Thu, 03 Sep 2020 UTC via a VEGA launch vehicle from the French Guiana (FRGUI). Payloads include a variety of satellites, spacecraft, and rockets equipped with specific instruments for various scientific and technological missions. These include communications satellites like Starlink; space stations such as the ISS; scientific satellites like the Hubble; Earth observation satellites from companies like Planet Labs, Umbra, and HawkEye 360; GPS; miniature CubeSats for education and research; and military/defense satellites.

Not visible in the next 10 days
FLOCK 4V 13 details
Identifier
46297, 2020-061AB
Orbit
Decayed
Last TLE update1 month ago
Origin
Flag of USPlanet (US)
ManufacturerPlanet
MissionDecayed Commercial Imaging
Bus & MotorCUBESAT 3U, Unknown motor
Mass5.7 kg wet, 5.7 kg dry
Launch date (UTC)
2020-09-03 (4 years ago)
Launch vehicle
VEGA
Launch site
French Guiana (FRGUI)
Object type
Payload
Rocket body
Debris
Shape & HBRBox + 2 Pan, 0.3 m
Radar Cross Section0.108 m², Medium (>0.1 m² and < 1m²)

Expand to show TLE details & history

TLE from 1 month ago
0 FLOCK 4V 13
1 46297U 20061AB  24329.45292653  .17114732  24962-5  53868-3 0  9990
2 46297  97.2954  47.8657 0013161 277.7576  82.2231 16.43721337234842
Epoch: 2024-11-24T10:52Z
Definitive object data (Epoch: 2024-11-24T10:52:12.852Z)
Latitude-0.00003°
Longitude-179.07924°
Altitude158.028 km
Speed7.812 km/s
True Right ascension03h 11m 27s
True Declination0° 00' 00"
Sunlit
Object was in full shadow at TLE epoch
Visualization observer readout
Observer readout values are unavailable because the object's trajectory could not be propagated. This is usually caused when the trajectory data is faulty or the object's orbit has decayed.
Visualization observer readout
Observer readout values are unavailable because the object's trajectory could not be propagated. This is usually caused when the trajectory data is faulty or the object's orbit has decayed.
Orbital elements
Apogee altitude161.315 km
Perigee altitude144.125 km
Semi-major axis6,530.857 km
Eccentricity0.0013161
Inclination97.2954°
RAAN47.8657°
Arg. of periapsis277.7576°
True anomaly82.37256°
Mean anomaly82.2231°
Eccentric anomaly82.29783°
Mean motion4.11233 °/min
BSTAR0.00053868
Orbital period87.54 mins
Loading maneuver chart data...

FLOCK 4V 13 Visibility forecast

Observer location: undefined°, undefined

This satellite is decayed
Span
Click to sort rows by Start time (UTC) header in descending order
Start Az.
Max El. time (UTC)
Max El. Az.
Max El.
End time (UTC)
End Az.
|